Weather History for CYXX - October, 2013

Change the Weather History Date:

Tuesday, October 1, 2013

  Actual Average Record
Temperature  
Mean Temperature 50 °F -  
Max Temperature 56 °F 59 °F 77 °F (2003)
Min Temperature 45 °F 41 °F 37 °F (1996)
Degree Days  
Heating Degree Days 14    
Moisture  
Dew Point 46 °F    
Average Humidity 87    
Maximum Humidity 100    
Minimum Humidity 67    
Precipitation  
Precipitation 0.51 in 0.21 in - ()
Sea Level Pressure  
Sea Level Pressure 29.99 in    
Wind  
Wind Speed 6 mph ()    
Max Wind Speed 16 mph    
Max Gust Speed 20 mph    
Visibility 13.4 miles    
Events Rain    
Averages and records for this station are not official NWS values.
T = Trace of Precipitation, MM = Missing Value Source: Averaged Metar Reports

Daily Weather History Graph

Daily Weather History Graph

Search for Another Location

Airport or City:

Trip Planner

Search our weather history database for the weather conditions in past years. The results will help you decide how hot, cold, wet, or windy it might be!

Date:

Astronomy

Oct. 01, 2013 Rise Set
Actual Time 7:09 AM PDT 6:47 PM PDT
Civil Twilight 6:38 AM PDT 7:19 PM PDT
Nautical Twilight 6:01 AM PDT 7:55 PM PDT
Astronomical Twilight 5:23 AM PDT 8:33 PM PDT
Moon 3:34 AM PDT (10/1) 5:05 PM PDT (10/1)
Length of Visible Light 12h 40m
Length of Day
11h 37m
Waning Crescent, 11% of the Moon is Illuminated
Oct 1
Waning Crescent
Oct 4
New
Oct 11
First Quarter
Oct 18
Full
Oct 26
Last Quarter

Hourly Weather History & Observations

Time (PDT) Temp. Windchill Dew Point Humidity Pressure Visibility Wind Dir Wind Speed Gust Speed Precip Events Conditions
12:00 AM 50.0 °F - 46.4 °F 87% 29.88 in 15.0 mi South 9.2 mph - N/A   Mostly Cloudy
1:00 AM 46.4 °F 45.2 °F 44.6 °F 93% 29.89 in 15.0 mi West 3.5 mph - N/A   Mostly Cloudy
2:00 AM 48.2 °F - 46.4 °F 93% 29.90 in 15.0 mi South 13.8 mph - N/A   Overcast
3:00 AM 48.2 °F - 44.6 °F 87% 29.90 in 15.0 mi SSW 9.2 mph - N/A   Overcast
4:00 AM 48.2 °F - 46.4 °F 93% 29.91 in 10.0 mi WSW 4.6 mph - N/A Rain Light Rain Showers
5:00 AM 47 °F - 46 °F 96% 29.91 in 10 mi SW 5.8 mph - - Rain Light Rain Showers
5:00 AM 48.2 °F - 46.4 °F 93% 29.91 in 10.0 mi SW 4.6 mph - N/A Rain Light Rain Showers
6:00 AM 46.4 °F - 46.4 °F 100% 29.91 in 10.0 mi Calm Calm - N/A   Mostly Cloudy
7:00 AM 48.2 °F - 44.6 °F 87% 29.92 in 25.0 mi SSE 5.8 mph - N/A Rain Light Rain Showers
7:22 AM 46.4 °F 45.2 °F 44.6 °F 93% 29.92 in 20.0 mi ESE 3.5 mph - N/A   Mostly Cloudy
8:00 AM 46.4 °F 45.2 °F 44.6 °F 93% 29.94 in 15.0 mi North 3.5 mph - N/A   Mostly Cloudy
9:00 AM 50.0 °F - 44.6 °F 82% 29.95 in 15.0 mi South 2.3 mph - N/A   Mostly Cloudy
10:00 AM 50.0 °F - 44.6 °F 82% 29.96 in 20.0 mi South 3.5 mph - N/A   Mostly Cloudy
11:00 AM 51 °F - 47 °F 82% 29.97 in 19 mi East 5.8 mph - -   Partly Cloudy
11:00 AM 51.8 °F - 46.4 °F 82% 29.97 in 20.0 mi East 6.9 mph - N/A   Mostly Cloudy
12:00 PM 53.6 °F - 44.6 °F 72% 29.98 in 15.0 mi South 12.7 mph - N/A   Mostly Cloudy
1:00 PM 53.6 °F - 44.6 °F 72% 30.00 in 20.0 mi South 16.1 mph - N/A   Mostly Cloudy
2:00 PM 55.4 °F - 46.4 °F 72% 30.01 in 15.0 mi South 11.5 mph 19.6 mph N/A   Mostly Cloudy
2:28 PM 55.4 °F - 44.6 °F 67% 30.02 in 15.0 mi South 11.5 mph - N/A Rain Light Rain Showers
3:00 PM 53.6 °F - 44.6 °F 72% 30.02 in 15.0 mi SSW 5.8 mph - N/A Rain Light Rain Showers
4:00 PM 53.6 °F - 44.6 °F 72% 30.04 in 20.0 mi South 5.8 mph - N/A   Mostly Cloudy
4:36 PM 51.8 °F - 46.4 °F 82% 30.04 in 15.0 mi NNE 9.2 mph - N/A   Overcast
4:51 PM 51.8 °F - 46.4 °F 82% 30.04 in 20.0 mi North 6.9 mph - N/A Rain Light Rain Showers
5:00 PM 51 °F - 46 °F 76% 30.04 in 19 mi NNE 6.9 mph - - Rain Light Rain Showers
5:00 PM 50.0 °F - 46.4 °F 87% 30.04 in 20.0 mi North 9.2 mph - N/A Rain Light Rain Showers
6:00 PM 48.2 °F - 46.4 °F 93% 30.05 in 3.0 mi North 4.6 mph - N/A Rain Light Rain Showers
7:00 PM 48.2 °F - 46.4 °F 93% 30.08 in 4.0 mi NNW 5.8 mph - N/A Rain Rain Showers
8:00 PM 46.4 °F 41.9 °F 46.4 °F 100% 30.08 in 4.0 mi NNE 9.2 mph - N/A Rain Rain Showers
9:00 PM 46.4 °F 42.9 °F 46.4 °F 100% 30.09 in 4.0 mi ENE 6.9 mph - N/A Rain Light Rain Showers
10:00 PM 46.4 °F 42.9 °F 46.4 °F 100% 30.09 in 4.0 mi North 6.9 mph - N/A Rain Light Rain Showers
11:00 PM 47 °F - 46 °F 95% 30.10 in 6 mi ENE 9.2 mph - - Rain Light Rain Showers
11:00 PM 46.4 °F 42.4 °F 46.4 °F 100% 30.10 in 6.0 mi ENE 8.1 mph - N/A Rain Light Rain Showers